Roseburg, OR

2:26 PM PDT on September 16, 2019 (GMT -0700)
Roseburg Regional

Weather History for KRBG - July, 2019

Change the Weather History Date:

Monday, July 29, 2019

  Actual Average Record
Temperature  
Mean Temperature 71 °F 72 °F  
Max Temperature 84 °F 86 °F 106 °F (2009)
Min Temperature 57 °F 57 °F 43 °F (1948)
Degree Days  
Heating Degree Days 0 0  
Month to date heating degree days 2 8  
Since 1 June heating degree days 37 91  
Since 1 July heating degree days 2 8  
Cooling Degree Days 6 7  
Month to date cooling degree days 184 162  
Year to date cooling degree days 335 232  
Since 1 June cooling degree days 306 212  
Growing Degree Days 20 (Base 50)    
Moisture  
Dew Point 54 °F    
Average Humidity 60    
Maximum Humidity 86    
Minimum Humidity 34    
Precipitation  
Precipitation 0.00 in 0.01 in 0.41 in (1975)
Month to date precipitation 0.02 0.40  
Year to date precipitation 21.69 19.16  
Sea Level Pressure  
Sea Level Pressure 30.01 in    
Wind  
Wind Speed 5 mph (NNW)    
Max Wind Speed 14 mph    
Max Gust Speed 21 mph    
Visibility 10 miles    
Events      
T = Trace of Precipitation, MM = Missing Value Source: NWS Daily Summary

Daily Weather History Graph

Daily Weather History Graph

Search for Another Location

Airport or City:

Astronomy

Jul. 29, 2019 Rise Set
Actual Time 6:00 AM PDT 8:38 PM PDT
Civil Twilight 5:27 AM PDT 9:11 PM PDT
Nautical Twilight 4:46 AM PDT 9:52 PM PDT
Astronomical Twilight 3:59 AM PDT 10:38 PM PDT
Moon 3:15 AM PDT (7/29) 6:50 PM PDT (7/29)
Length of Visible Light 15h 43m
Length of Day
14h 38m
Waning Crescent, 8% of the Moon is Illuminated
Jul 29
Waning Crescent
Jul 31
New
Aug 7
First Quarter
Aug 15
Full
Aug 23
Last Quarter

Hourly Weather History & Observations

Time (PDT) Temp. Heat Index Dew Point Humidity Pressure Visibility Wind Dir Wind Speed Gust Speed Precip Events Conditions
5:53 AM 57.9 °F - 52.0 °F 81% 30.04 in 10.0 mi Calm Calm - N/A   Clear
6:53 AM 57.9 °F - 53.1 °F 84% 30.05 in 10.0 mi Calm Calm - N/A   Clear
7:53 AM 61.0 °F - 53.1 °F 75% 30.06 in 10.0 mi Calm Calm - N/A   Clear
8:39 AM 63.0 °F - 53.1 °F 70% 30.06 in 10.0 mi North 4.6 mph - N/A   Mostly Cloudy
8:53 AM 63.0 °F - 53.1 °F 70% 30.06 in 10.0 mi North 3.5 mph - N/A   Overcast
9:53 AM 64.0 °F - 53.1 °F 67% 30.05 in 10.0 mi Calm Calm - N/A   Overcast
10:53 AM 66.9 °F - 54.0 °F 63% 30.05 in 10.0 mi Variable 4.6 mph - N/A   Overcast
11:53 AM 70.0 °F - 55.0 °F 59% 30.03 in 10.0 mi Variable 5.8 mph - N/A   Scattered Clouds
12:53 PM 73.0 °F - 55.0 °F 53% 30.01 in 10.0 mi Calm Calm - N/A   Clear
1:53 PM 78.1 °F - 54.0 °F 43% 29.99 in 10.0 mi North 6.9 mph - N/A   Clear
2:53 PM 80.1 °F 80.0 °F 54.0 °F 40% 29.96 in 10.0 mi WNW 6.9 mph - N/A   Clear
3:53 PM 82.9 °F - 52.0 °F 34% 29.95 in 10.0 mi NNE 12.7 mph 17.3 mph N/A   Clear
4:53 PM 82.0 °F 81.2 °F 53.1 °F 37% 29.94 in 10.0 mi NW 10.4 mph 16.1 mph N/A   Clear
5:53 PM 82.0 °F 81.2 °F 53.1 °F 37% 29.94 in 10.0 mi NW 8.1 mph - N/A   Clear
6:53 PM 78.1 °F - 55.0 °F 45% 29.95 in 10.0 mi WNW 6.9 mph 20.7 mph N/A   Clear
7:53 PM 75.0 °F - 55.0 °F 50% 29.96 in 10.0 mi NW 11.5 mph - N/A   Clear
8:53 PM 71.1 °F - 55.0 °F 57% 29.99 in 10.0 mi Variable 3.5 mph - N/A   Clear
9:53 PM 68.0 °F - 54.0 °F 61% 30.02 in 10.0 mi North 8.1 mph - N/A   Clear
10:53 PM 64.9 °F - 53.1 °F 65% 30.03 in 10.0 mi North 4.6 mph - N/A   Clear
11:53 PM 64.0 °F - 53.1 °F 67% 30.04 in 10.0 mi Variable 4.6 mph - N/A   Clear